�v������,���r���O(���x),�����t���O,���r���O(���x),�����t���O,��1(���x),�����t���O,��1(���x),�����t���O,��2���x),�����t���O,��3(���x),�����t���O,��4(���x),�����t���O,�C�ۑ�(���x),�����t���O,�C�ۑ�(���x),�����t���O
2/1/2003 0:00,3.1,0,47,0,18.2,0,44,0,17.3,0,17.6,0,17.1,0,3.2,0,51.8,0
2/1/2003 0:15,3,0,49,0,18.1,0,44,0,17.3,0,16.7,0,16.9,0,2.9,0,53,0
2/1/2003 0:30,2.9,0,48,0,18,0,43,0,17.2,0,17.7,0,16.6,0,2.6,0,54.3,0
2/1/2003 0:45,2.7,0,50,0,17.9,0,41,0,17,0,17.8,0,16.5,0,2.4,0,55.5,0
2/1/2003 1:00,2.3,0,52,0,17.8,0,40,0,17,0,17.8,0,16.4,0,2.1,0,56.8,0
2/1/2003 1:15,2.3,0,52,0,17.7,0,39,0,16.8,0,17.8,0,16.3,0,2.2,0,55.8,0
2/1/2003 1:30,2.2,0,51,0,17.6,0,39,0,16.7,0,17.8,0,16.2,0,2.3,0,54.8,0
2/1/2003 1:45,2.2,0,51,0,17.6,0,38,0,16.6,0,17.8,0,16.1,0,2.4,0,53.8,0
2/1/2003 2:00,2.2,0,49,0,17.5,0,38,0,16.4,0,17.6,0,16,0,2.5,0,52.8,0
2/1/2003 2:15,2,0,49,0,17.4,0,37,0,16.3,0,17.5,0,15.9,0,2.4,0,52.8,0
2/1/2003 2:30,2.1,0,49,0,17.4,0,37,0,16.1,0,17.5,0,15.9,0,2.4,0,52.8,0
2/1/2003 2:45,2.2,0,48,0,17.3,0,37,0,15.9,0,17.7,0,15.8,0,2.3,0,52.8,0
2/1/2003 3:00,2.1,0,49,0,17.3,0,37,0,15.9,0,17.7,0,15.7,0,2.3,0,52.8,0
2/1/2003 3:15,2.1,0,50,0,17.3,0,38,0,15.8,0,17.6,0,15.6,0,2.2,0,53,0
2/1/2003 3:30,2.2,0,50,0,17.3,0,38,0,15.8,0,17.6,0,15.5,0,2.2,0,53.3,0
2/1/2003 3:45,2.3,0,49,0,17.2,0,38,0,15.7,0,17.6,0,15.4,0,2.1,0,53.5,0
2/1/2003 4:00,2.1,0,49,0,17.1,0,39,0,15.6,0,17.1,0,15.3,0,2.1,0,53.8,0
2/1/2003 4:15,2.1,0,48,0,17.1,0,39,0,15.5,0,16.8,0,15.3,0,2.2,0,53,0
2/1/2003 4:30,2.1,0,47,0,17.1,0,39,0,15.4,0,16.5,0,15.2,0,2.2,0,52.3,0
2/1/2003 4:45,2.1,0,47,0,17.1,0,39,0,15.4,0,16.2,0,15.1,0,2.3,0,51.5,0
2/1/2003 5:00,2.1,0,45,0,17,0,39,0,15.3,0,15.8,0,15.1,0,2.4,0,50.8,0
2/1/2003 5:15,2.3,0,41,0,17,0,39,0,15.3,0,16.3,0,15,0,2.5,0,47.8,0
2/1/2003 5:30,2.4,0,40,0,17,0,40,0,15.2,0,15.4,0,14.9,0,2.7,0,44.8,0
2/1/2003 5:45,2.5,0,38,0,17,0,40,0,15.1,0,14.8,0,14.8,0,2.8,0,41.8,0
2/1/2003 6:00,2.2,0,39,0,17,0,39,0,15.1,0,14.6,0,14.8,0,3,0,38.8,0
2/1/2003 6:15,2.1,0,40,0,16.9,0,39,0,15,0,15,0,14.8,0,3,0,38.5,0
2/1/2003 6:30,2.2,0,40,0,16.9,0,39,0,15,0,15.7,0,14.7,0,3,0,38.3,0
2/1/2003 6:45,1.6,0,44,0,17.2,0,42,0,16.4,0,15.5,0,14.8,0,3.1,0,38,0
2/1/2003 7:00,1.4,0,45,0,18.1,0,45,0,16.7,0,22.5,0,14.9,0,3.1,0,37.8,0
2/1/2003 7:15,1.5,0,46,0,17.4,0,46,0,16.7,0,16.1,0,15.4,0,3.3,0,37.3,0
2/1/2003 7:30,1.6,0,45,0,17.4,0,46,0,16.6,0,16.9,0,14.7,0,3.4,0,36.8,0
2/1/2003 7:45,1.9,0,44,0,17.5,0,46,0,16.8,0,17,0,14.6,0,3.6,0,36.3,0
2/1/2003 8:00,2.2,0,44,0,17.6,0,45,0,17,0,17,0,14.5,0,3.8,0,35.8,0
2/1/2003 8:15,2.2,0,43,0,17.6,0,45,0,17.2,0,17.2,0,14.4,0,4.2,0,35,0
2/1/2003 8:30,2.4,0,43,0,17.7,0,44,0,17.3,0,17.3,0,14.3,0,4.6,0,34.3,0
2/1/2003 8:45,2.6,0,42,0,17.8,0,43,0,17.5,0,17.2,0,14.3,0,5.1,0,33.5,0
2/1/2003 9:00,3,0,41,0,17.9,0,42,0,17.6,0,17.2,0,14.2,0,5.5,0,32.8,0
2/1/2003 9:15,3.3,0,38,0,18,0,42,0,17.7,0,17.3,0,14.2,0,5.7,0,32,0
2/1/2003 9:30,3.4,0,35,0,18,0,41,0,17.8,0,17.2,0,14.2,0,5.8,0,31.3,0
2/1/2003 9:45,3.7,0,34,0,18.1,0,40,0,17.9,0,17.4,0,14.1,0,6,0,30.5,0
2/1/2003 10:00,3.9,0,32,0,18.1,0,40,0,17.9,0,17.6,0,14.1,0,6.2,0,29.8,0
2/1/2003 10:15,4,0,31,0,18.1,0,39,0,18,0,17.5,0,14.1,0,6.4,0,29,0
2/1/2003 10:30,4.3,0,30,0,18.1,0,39,0,18,0,17.6,0,14.1,0,6.5,0,28.3,0
2/1/2003 10:45,4.4,0,30,0,18.2,0,38,0,18,0,17.6,0,14,0,6.7,0,27.5,0
2/1/2003 11:00,4.6,0,30,0,18.1,0,38,0,18,0,17.6,0,14,0,6.9,0,26.8,0
2/1/2003 11:15,4.6,0,31,0,18.1,0,39,0,18,0,17.6,0,14,0,7,0,26.5,0
2/1/2003 11:30,4.7,0,31,0,18,0,38,0,18,0,17.5,0,14,0,7.2,0,26.3,0
2/1/2003 11:45,4.9,0,30,0,18,0,38,0,17.9,0,17.5,0,14.1,0,7.3,0,26,0
2/1/2003 12:00,5,0,31,0,17.9,0,38,0,17.8,0,17.4,0,14.2,0,7.5,0,25.8,0
2/1/2003 12:15,5.3,0,30,0,17.9,0,39,0,17.8,0,17.4,0,14.4,0,7.6,0,25.8,0
2/1/2003 12:30,5.4,0,30,0,17.8,0,39,0,17.7,0,17.3,0,14.6,0,7.7,0,25.8,0
2/1/2003 12:45,5.4,0,29,0,17.7,0,39,0,17.6,0,17.4,0,14.7,0,7.8,0,25.8,0
2/1/2003 13:00,5.5,0,28,0,17.7,0,38,0,17.5,0,17.5,0,14.8,0,7.9,0,25.8,0
2/1/2003 13:15,5.6,0,28,0,17.5,0,37,0,17.3,0,17.6,0,14.9,0,8,0,25.3,0
2/1/2003 13:30,5.6,0,27,0,17.5,0,37,0,17.2,0,17.8,0,15,0,8,0,24.8,0
2/1/2003 13:45,5.9,0,26,0,17.4,0,37,0,17.1,0,17.9,0,15.1,0,8.1,0,24.3,0
2/1/2003 14:00,5.9,0,25,0,17.4,0,36,0,17,0,18.1,0,15.2,0,8.2,0,23.8,0
2/1/2003 14:15,5.9,0,25,0,17.3,0,36,0,16.9,0,18.2,0,15.3,0,8.2,0,24,0
2/1/2003 14:30,6.1,0,25,0,17.2,0,36,0,16.8,0,18.3,0,15.5,0,8.2,0,24.3,0
2/1/2003 14:45,6.1,0,24,0,17.2,0,36,0,16.7,0,18.3,0,15.5,0,8.3,0,24.5,0
2/1/2003 15:00,6.1,0,24,0,17.1,0,37,0,16.7,0,18.4,0,15.6,0,8.3,0,24.8,0
2/1/2003 15:15,6.2,0,24,0,17.1,0,37,0,16.5,0,18.3,0,15.6,0,8.1,0,24.8,0
2/1/2003 15:30,6,0,24,0,17,0,38,0,16.4,0,18.3,0,15.6,0,7.8,0,24.8,0
2/1/2003 15:45,6,0,24,0,16.9,0,37,0,16.3,0,18.3,0,15.6,0,7.6,0,24.8,0
2/1/2003 16:00,5.9,0,23,0,16.8,0,36,0,16.2,0,18.3,0,15.6,0,7.4,0,24.8,0
2/1/2003 16:15,5.9,0,22,0,16.8,0,37,0,16.1,0,18.1,0,15.6,0,7.2,0,25.3,0
2/1/2003 16:30,5.8,0,22,0,16.9,0,37,0,16,0,17.9,0,15.5,0,7,0,25.8,0
2/1/2003 16:45,5.4,0,23,0,16.8,0,37,0,15.9,0,17.7,0,15.4,0,6.8,0,26.3,0
2/1/2003 17:00,5.2,0,23,0,16.7,0,37,0,15.8,0,17.4,0,15.1,0,6.6,0,26.8,0
2/1/2003 17:15,4.9,0,25,0,16.7,0,36,0,15.7,0,17.1,0,14.8,0,6.4,0,27,0
2/1/2003 17:30,4.8,0,26,0,16.6,0,38,0,15.6,0,17.1,0,14.6,0,6.3,0,27.3,0
2/1/2003 17:45,4.5,0,28,0,16.6,0,38,0,15.5,0,16.9,0,14.5,0,6.1,0,27.5,0
2/1/2003 18:00,4.2,0,30,0,16.5,0,38,0,15.5,0,16.8,0,14.3,0,6,0,27.8,0
2/1/2003 18:15,4.3,0,31,0,16.5,0,38,0,15.4,0,16.5,0,14.2,0,5.8,0,29,0
2/1/2003 18:30,4.2,0,32,0,16.5,0,39,0,15.4,0,16,0,14.1,0,5.6,0,30.3,0
2/1/2003 18:45,3.8,0,32,0,16.4,0,39,0,15.3,0,16.1,0,14.1,0,5.4,0,31.5,0
2/1/2003 19:00,3.7,0,33,0,16.4,0,39,0,15.3,0,16,0,14,0,5.2,0,32.8,0
2/1/2003 19:15,3.8,0,34,0,16.3,0,40,0,15.2,0,15.9,0,13.9,0,5,0,34.3,0
2/1/2003 19:30,3.5,0,35,0,16.3,0,40,0,15.2,0,15.8,0,13.9,0,4.7,0,35.8,0
2/1/2003 19:45,3.5,0,35,0,16.2,0,40,0,15.1,0,15.3,0,13.8,0,4.5,0,37.3,0
2/1/2003 20:00,3.2,0,36,0,16.2,0,40,0,15.1,0,15.3,0,13.7,0,4.3,0,38.8,0
2/1/2003 20:15,3.3,0,38,0,16.1,0,40,0,15,0,15.6,0,13.6,0,4.2,0,39.3,0
2/1/2003 20:30,3.1,0,40,0,16.1,0,39,0,15,0,15.7,0,13.6,0,4,0,39.8,0
2/1/2003 20:45,3,0,41,0,16.1,0,39,0,14.9,0,15.6,0,13.5,0,3.9,0,40.3,0
2/1/2003 21:00,3,0,41,0,16,0,39,0,14.9,0,15.2,0,13.4,0,3.8,0,40.8,0
2/1/2003 21:15,2.9,0,41,0,15.9,0,40,0,14.8,0,14.9,0,13.3,0,3.6,0,41.5,0
2/1/2003 21:30,2.8,0,42,0,15.9,0,40,0,14.8,0,14.9,0,13.2,0,3.4,0,42.3,0
2/1/2003 21:45,2.8,0,42,0,16.5,0,45,0,15.5,0,16.2,0,14,0,3.3,0,43,0
2/1/2003 22:00,2.9,0,41,0,18.1,0,53,0,16.7,0,17.5,0,19.2,0,3.1,0,43.8,0
2/1/2003 22:15,2.9,0,40,0,20,0,52,0,16.5,0,18.2,0,21.1,0,2.9,0,44.8,0
2/1/2003 22:30,2.7,0,41,0,19.6,0,52,0,16.7,0,17.4,0,21.1,0,2.7,0,45.8,0
2/1/2003 22:45,2.7,0,40,0,17.3,0,56,0,16,0,16.9,0,16.7,0,2.5,0,46.8,0
2/1/2003 23:00,2.7,0,39,0,17.1,0,47,0,15.6,0,16.7,0,16,0,2.3,0,47.8,0
2/1/2003 23:15,2.7,0,40,0,17,0,46,0,15.3,0,16.7,0,15.6,0,2.2,0,47.8,0
2/1/2003 23:30,2.7,0,39,0,16.8,0,45,0,15.3,0,16.7,0,15.4,0,2.1,0,47.8,0
2/1/2003 23:45,2.5,0,39,0,16.7,0,45,0,15.2,0,16.5,0,15.3,0,2.1,0,47.8,0
2/2/2003 0:00,2.3,0,40,0,16.6,0,46,0,15,0,16.5,0,15.1,0,2,0,47.8,0
2/2/2003 0:15,2,0,40,0,16.5,0,44,0,15,0,16.3,0,14.9,0,1.9,0,48.5,0
2/2/2003 0:30,2.1,0,41,0,16.4,0,44,0,15,0,16.3,0,14.8,0,1.8,0,49.3,0
2/2/2003 0:45,1.9,0,42,0,16.3,0,44,0,15,0,16.3,0,14.8,0,1.7,0,50,0
2/2/2003 1:00,2,0,41,0,16.3,0,44,0,14.9,0,15.9,0,14.7,0,1.6,0,50.8,0
2/2/2003 1:15,1.5,0,42,0,16.3,0,44,0,14.8,0,15.6,0,14.8,0,1.5,0,51.3,0
2/2/2003 1:30,1.2,0,45,0,16.2,0,43,0,14.8,0,15.4,0,14.7,0,1.3,0,51.8,0
2/2/2003 1:45,0.6,0,49,0,16.2,0,43,0,14.7,0,15.2,0,14.6,0,1.2,0,52.3,0
2/2/2003 2:00,0.5,0,51,0,16.1,0,43,0,14.7,0,15.4,0,14.5,0,1.1,0,52.8,0
2/2/2003 2:15,0.8,0,49,0,16,0,42,0,14.6,0,15.6,0,14.5,0,1,0,53,0
2/2/2003 2:30,0.9,0,49,0,16,0,42,0,14.6,0,15.5,0,14.4,0,1,0,53.3,0
2/2/2003 2:45,0.6,0,49,0,16,0,43,0,14.8,0,15.2,0,14.3,0,0.9,0,53.5,0
2/2/2003 3:00,0.1,0,50,0,16,0,42,0,14.8,0,15.1,0,14.3,0,0.9,0,53.8,0
2/2/2003 3:15,0.2,0,51,0,15.9,0,42,0,14.8,0,15.4,0,14.3,0,1,0,53,0
2/2/2003 3:30,0.5,0,50,0,15.9,0,42,0,14.7,0,15.2,0,14.2,0,1,0,52.3,0
2/2/2003 3:45,0.1,0,52,0,15.8,0,42,0,14.5,0,15.3,0,14.1,0,1.1,0,51.5,0
2/2/2003 4:00,0,0,52,0,15.8,0,42,0,14.3,0,15.5,0,14.1,0,1.2,0,50.8,0
2/2/2003 4:15,-0.3,0,52,0,15.8,0,42,0,14.2,0,15.3,0,14,0,1.1,0,50.8,0
2/2/2003 4:30,-0.1,0,50,0,15.7,0,42,0,14.1,0,15.2,0,13.9,0,1,0,50.8,0
2/2/2003 4:45,0.3,0,47,0,15.7,0,42,0,14.1,0,15.1,0,14,0,0.9,0,50.8,0
2/2/2003 5:00,0.6,0,45,0,15.7,0,41,0,14.2,0,14.8,0,13.8,0,0.8,0,50.8,0
2/2/2003 5:15,0.5,0,45,0,15.7,0,41,0,14.1,0,14.8,0,13.7,0,0.6,0,51.8,0
2/2/2003 5:30,0.3,0,44,0,15.6,0,41,0,14,0,14.8,0,13.7,0,0.5,0,52.8,0
2/2/2003 5:45,0.3,0,46,0,15.6,0,41,0,14,0,15,0,13.7,0,0.3,0,53.8,0
2/2/2003 6:00,0.3,0,47,0,15.6,0,41,0,13.9,0,15.2,0,13.6,0,0.2,0,54.8,0
2/2/2003 6:15,0.5,0,46,0,15.5,0,41,0,13.9,0,15.1,0,13.7,0,0.2,0,54.8,0
2/2/2003 6:30,0.4,0,43,0,15.5,0,41,0,13.9,0,15,0,13.6,0,0.1,0,54.8,0
2/2/2003 6:45,0.5,0,41,0,15.5,0,41,0,14,0,14.8,0,13.6,0,0.1,0,54.8,0
2/2/2003 7:00,0.8,0,41,0,15.5,0,41,0,14,0,14.6,0,13.6,0,0.1,0,54.8,0
2/2/2003 7:15,0.8,0,41,0,18.3,0,45,0,14.4,0,16.7,0,13.7,0,0.3,0,54,0
2/2/2003 7:30,0.9,0,41,0,19.8,0,45,0,16.1,0,15.8,0,13.4,0,0.4,0,53.3,0
2/2/2003 7:45,1.3,0,43,0,18.2,0,49,0,16.7,0,20.4,0,13.5,0,0.6,0,52.5,0
2/2/2003 8:00,1.2,0,44,0,18.2,0,46,0,16.9,0,21.2,0,14.3,0,0.8,0,51.8,0
2/2/2003 8:15,1,0,45,0,21.7,0,46,0,18.8,0,20,0,14,0,1,0,52.3,0
2/2/2003 8:30,1.1,0,47,0,21,0,48,0,19.9,0,19.1,0,14,0,1.3,0,52.8,0
2/2/2003 8:45,1,0,47,0,19,0,37,0,15.5,0,18.7,0,13.9,0,1.5,0,53.3,0
2/2/2003 9:00,1.3,0,46,0,19.4,0,39,0,17.9,0,18.4,0,14.1,0,1.8,0,53.8,0
2/2/2003 9:15,1.9,0,44,0,19.8,0,40,0,19,0,18.3,0,13.1,0,2.2,0,53.8,0
2/2/2003 9:30,1.7,0,41,0,19.4,0,39,0,18.9,0,18.3,0,12.8,0,2.5,0,53.8,0
2/2/2003 9:45,1.9,0,42,0,19.3,0,38,0,18.8,0,18.4,0,12.7,0,2.9,0,53.8,0
2/2/2003 10:00,1.8,0,43,0,19.5,0,37,0,19.2,0,18.6,0,12.8,0,3.3,0,53.8,0
2/2/2003 10:15,1.9,0,41,0,19.4,0,39,0,19.4,0,18.4,0,11.6,0,3.4,0,54.3,0
2/2/2003 10:30,2.2,0,39,0,18,0,35,0,18.6,0,17.7,0,10.8,0,3.5,0,54.8,0
2/2/2003 10:45,2.5,0,37,0,17.6,0,34,0,18.2,0,17.5,0,10.5,0,3.6,0,55.3,0
2/2/2003 11:00,2.6,0,34,0,17.8,0,39,0,18,0,17.6,0,9.6,0,3.7,0,55.8,0
2/2/2003 11:15,2.7,0,33,0,17.5,0,37,0,17.6,0,17.4,0,11.2,0,4.1,0,54.5,0
2/2/2003 11:30,2.9,0,33,0,18.9,0,40,0,18.3,0,18.1,0,11.4,0,4.5,0,53.3,0
2/2/2003 11:45,3,0,33,0,19.5,0,41,0,19,0,18.2,0,10.6,0,5,0,52,0
2/2/2003 12:00,3.1,0,33,0,19.7,0,43,0,19.5,0,18.5,0,10.7,0,5.4,0,50.8,0
2/2/2003 12:15,3.4,0,35,0,21,0,42,0,19.7,0,19.4,0,10.8,0,5.4,0,51.5,0
2/2/2003 12:30,3.4,0,33,0,20.9,0,45,0,19.8,0,19.4,0,10.9,0,5.3,0,52.3,0
2/2/2003 12:45,3.6,0,34,0,20.5,0,45,0,19.7,0,19.2,0,10.9,0,5.3,0,53,0
2/2/2003 13:00,3.9,0,35,0,19.2,0,41,0,18.9,0,18.3,0,11.3,0,5.3,0,53.8,0
2/2/2003 13:15,4,0,34,0,17.4,0,40,0,17.5,0,16.9,0,14,0,5.3,0,50.8,0
2/2/2003 13:30,3.9,0,33,0,17.3,0,41,0,17.2,0,16.7,0,14.4,0,5.3,0,47.8,0
2/2/2003 13:45,4,0,34,0,17,0,42,0,16.7,0,16.7,0,14.4,0,5.4,0,44.8,0
2/2/2003 14:00,4.1,0,34,0,16.9,0,43,0,16.4,0,16.5,0,14.4,0,5.4,0,41.8,0
2/2/2003 14:15,4.1,0,34,0,16.8,0,43,0,16.1,0,16.1,0,14.4,0,5.3,0,44.5,0
2/2/2003 14:30,4.2,0,33,0,16.6,0,44,0,15.9,0,16,0,14.3,0,5.3,0,47.3,0
2/2/2003 14:45,4.2,0,34,0,16.6,0,43,0,15.8,0,16,0,14.2,0,5.2,0,50,0
2/2/2003 15:00,4.3,0,33,0,16.6,0,41,0,15.8,0,16,0,14.2,0,5.2,0,52.8,0
2/2/2003 15:15,4.4,0,32,0,16.3,0,43,0,15.6,0,15.8,0,14.5,0,5.1,0,52.8,0
2/2/2003 15:30,4.3,0,32,0,16.3,0,43,0,15.5,0,15.7,0,14.4,0,5,0,52.8,0
2/2/2003 15:45,4.5,0,33,0,16.2,0,43,0,15.4,0,15.8,0,14.3,0,5,0,52.8,0
2/2/2003 16:00,4.3,0,31,0,16.1,0,43,0,15.3,0,15.5,0,14.2,0,4.9,0,52.8,0
2/2/2003 16:15,4.6,0,36,0,16,0,43,0,15.3,0,15.5,0,14.2,0,4.9,0,52.8,0
2/2/2003 16:30,4.6,0,34,0,16.1,0,43,0,15.1,0,15.2,0,14.1,0,4.8,0,52.8,0
2/2/2003 16:45,4.4,0,32,0,15.9,0,43,0,15.1,0,15.1,0,14.1,0,4.8,0,52.8,0
2/2/2003 17:00,4.5,0,33,0,15.9,0,43,0,15,0,15.1,0,14,0,4.8,0,52.8,0
2/2/2003 17:15,4.4,0,33,0,16,0,43,0,14.9,0,14.9,0,14,0,4.7,0,53,0
2/2/2003 17:30,4.3,0,32,0,15.8,0,43,0,14.8,0,14.9,0,13.9,0,4.6,0,53.3,0
2/2/2003 17:45,4.3,0,36,0,15.9,0,43,0,14.8,0,14.9,0,13.9,0,4.6,0,53.5,0
2/2/2003 18:00,4.2,0,34,0,15.8,0,42,0,14.7,0,14.8,0,13.8,0,4.5,0,53.8,0
2/2/2003 18:15,4.3,0,40,0,15.7,0,42,0,14.6,0,14.7,0,13.8,0,4.4,0,54.5,0
2/2/2003 18:30,4.4,0,47,0,15.8,0,42,0,14.6,0,14.5,0,13.8,0,4.3,0,55.3,0
2/2/2003 18:45,4.4,0,39,0,15.7,0,42,0,14.5,0,14.5,0,13.8,0,4.3,0,56,0
2/2/2003 19:00,4.4,0,45,0,15.7,0,42,0,14.5,0,14.5,0,13.7,0,4.2,0,56.8,0
2/2/2003 19:15,4.2,0,44,0,15.6,0,42,0,14.4,0,14.4,0,13.7,0,4.2,0,56.8,0
2/2/2003 19:30,4.2,0,41,0,15.6,0,42,0,14.4,0,14.4,0,13.7,0,4.2,0,56.8,0
2/2/2003 19:45,4.2,0,40,0,15.6,0,42,0,14.3,0,14.4,0,13.6,0,4.3,0,56.8,0
2/2/2003 20:00,4.3,0,42,0,15.6,0,42,0,14.3,0,14.3,0,13.6,0,4.3,0,56.8,0
2/2/2003 20:15,4.4,0,47,0,15.5,0,42,0,14.3,0,14.1,0,13.6,0,4.3,0,57,0
2/2/2003 20:30,4.3,0,44,0,17.5,0,42,0,14.9,0,15.4,0,13.9,0,4.3,0,57.3,0
2/2/2003 20:45,4.2,0,49,0,20.8,0,40,0,14.8,0,17.2,0,13.6,0,4.3,0,57.5,0
2/2/2003 21:00,4.3,0,50,0,20.6,0,42,0,14.8,0,17.5,0,19.6,0,4.3,0,57.8,0
2/2/2003 21:15,4.5,0,54,0,21.1,0,43,0,15,0,17.7,0,20.5,0,4.2,0,59.8,0
2/2/2003 21:30,4.4,0,54,0,22,0,42,0,15.4,0,18.9,0,21.2,0,4.1,0,61.8,0
2/2/2003 21:45,3.9,0,53,0,21.8,0,42,0,15.4,0,18.8,0,21.8,0,4,0,63.8,0
2/2/2003 22:00,3.7,0,49,0,21.2,0,46,0,15.3,0,18.2,0,22.7,0,3.9,0,65.8,0
2/2/2003 22:15,3.4,0,48,0,20.2,0,47,0,15.2,0,17.6,0,23.1,0,3.8,0,65.8,0
2/2/2003 22:30,3.1,0,47,0,20.1,0,47,0,15.4,0,17.6,0,23.2,0,3.8,0,65.8,0
2/2/2003 22:45,3,0,47,0,20,0,49,0,15.7,0,17.6,0,23.4,0,3.7,0,65.8,0
2/2/2003 23:00,2.9,0,46,0,20.1,0,48,0,15.7,0,17.3,0,24,0,3.7,0,65.8,0
2/2/2003 23:15,2.7,0,47,0,18.3,0,50,0,15.5,0,16.7,0,19.5,0,3.6,0,64.8,0
2/2/2003 23:30,2.6,0,47,0,17.9,0,48,0,15.4,0,16.4,0,18.5,0,3.5,0,63.8,0
2/2/2003 23:45,2.6,0,49,0,17.6,0,47,0,15.1,0,16.2,0,17.7,0,3.4,0,62.8,0
2/3/2003 0:00,2.5,0,49,0,17.4,0,46,0,14.9,0,16.2,0,17.2,0,3.3,0,61.8,0
2/3/2003 0:15,2.3,0,49,0,17.2,0,45,0,14.8,0,16,0,16.9,0,3.2,0,61.8,0
2/3/2003 0:30,2,0,48,0,17.1,0,44,0,15,0,15.9,0,16.6,0,3,0,61.8,0
2/3/2003 0:45,1.7,0,49,0,17,0,43,0,14.9,0,15.9,0,16.4,0,2.9,0,61.8,0
2/3/2003 1:00,1.9,0,49,0,16.9,0,42,0,14.7,0,15.8,0,16.1,0,2.8,0,61.8,0
2/3/2003 1:15,1.7,0,50,0,16.8,0,42,0,14.4,0,15.9,0,15.9,0,2.7,0,62.3,0
2/3/2003 1:30,1.5,0,52,0,16.7,0,41,0,14.3,0,15.8,0,15.8,0,2.5,0,62.8,0
2/3/2003 1:45,1.5,0,53,0,16.6,0,42,0,14.2,0,15.7,0,15.6,0,2.4,0,63.3,0
2/3/2003 2:00,1.3,0,52,0,16.6,0,41,0,14.1,0,15.9,0,15.5,0,2.3,0,63.8,0
2/3/2003 2:15,1.4,0,52,0,16.5,0,41,0,14.1,0,15.6,0,15.4,0,2.2,0,62.8,0
2/3/2003 2:30,1.2,0,53,0,16.4,0,42,0,14.1,0,15.6,0,15.3,0,2.2,0,61.8,0
2/3/2003 2:45,1.4,0,51,0,16.3,0,42,0,14.1,0,15.6,0,15.3,0,2.1,0,60.8,0
2/3/2003 3:00,1.6,0,50,0,16.3,0,41,0,14,0,15.6,0,15.1,0,2.1,0,59.8,0
2/3/2003 3:15,1.6,0,49,0,16.2,0,42,0,13.9,0,15.1,0,15,0,2,0,59.5,0
2/3/2003 3:30,1.7,0,50,0,16.2,0,41,0,13.9,0,15.1,0,14.8,0,2,0,59.3,0
2/3/2003 3:45,1.5,0,50,0,16.1,0,41,0,13.8,0,15.4,0,14.8,0,1.9,0,59,0
2/3/2003 4:00,1.3,0,52,0,16.1,0,41,0,13.7,0,15.4,0,14.7,0,1.9,0,58.8,0
2/3/2003 4:15,1,0,56,0,16.1,0,41,0,13.7,0,15.4,0,14.7,0,1.8,0,59,0
2/3/2003 4:30,0.9,0,58,0,16,0,41,0,13.7,0,15.5,0,14.5,0,1.7,0,59.3,0
2/3/2003 4:45,0.7,0,59,0,15.9,0,41,0,13.6,0,15.5,0,14.5,0,1.7,0,59.5,0
2/3/2003 5:00,0.6,0,60,0,15.9,0,41,0,13.5,0,15.7,0,14.5,0,1.6,0,59.8,0
2/3/2003 5:15,0.5,0,59,0,15.8,0,41,0,13.5,0,15.9,0,14.3,0,1.6,0,59.5,0
2/3/2003 5:30,0.5,0,57,0,15.8,0,41,0,13.4,0,16,0,14.2,0,1.6,0,59.3,0
2/3/2003 5:45,0.5,0,57,0,15.6,0,42,0,13.5,0,16,0,14.2,0,1.6,0,59,0
2/3/2003 6:00,0.3,0,58,0,15.8,0,42,0,13.3,0,15.8,0,14.1,0,1.6,0,58.8,0
2/3/2003 6:15,0.4,0,57,0,17.7,0,43,0,13.4,0,16.9,0,14.1,0,1.5,0,59,0
2/3/2003 6:30,0.3,0,57,0,18.8,0,44,0,13.3,0,25.3,0,14.3,0,1.5,0,59.3,0
2/3/2003 6:45,0.1,0,57,0,18.5,0,49,0,13.2,0,39.3,0,14.1,0,1.4,0,59.5,0
2/3/2003 7:00,0.1,0,57,0,18.3,0,44,0,15,0,27.8,0,14,0,1.4,0,59.8,0
2/3/2003 7:15,0,0,58,0,18.4,0,48,0,16.7,0,28.9,0,13.9,0,1.5,0,59.8,0
2/3/2003 7:30,0.2,0,57,0,16.3,0,48,0,15.7,0,26.7,0,14.3,0,1.5,0,59.8,0
2/3/2003 7:45,0.6,0,58,0,19.5,0,47,0,17.8,0,23.9,0,14.1,0,1.6,0,59.8,0
2/3/2003 8:00,0.5,0,56,0,20.2,0,47,0,18.9,0,22.1,0,14,0,1.7,0,59.8,0
2/3/2003 8:15,0.9,0,55,0,20.8,0,47,0,19.6,0,21.3,0,14,0,2,0,58.5,0
2/3/2003 8:30,1.2,0,55,0,21.4,0,48,0,20.2,0,21.1,0,13.9,0,2.3,0,57.3,0
2/3/2003 8:45,1.5,0,54,0,21.8,0,48,0,20.8,0,21,0,13.8,0,2.6,0,56,0
2/3/2003 9:00,1.8,0,51,0,22.2,0,48,0,21.2,0,20.9,0,13.7,0,2.9,0,54.8,0
2/3/2003 9:15,2.1,0,47,0,21.2,0,48,0,21,0,20.2,0,13.7,0,3.4,0,53,0
2/3/2003 9:30,2.2,0,45,0,19.8,0,50,0,20,0,19.3,0,13.7,0,3.8,0,51.3,0
2/3/2003 9:45,2.3,0,46,0,19.5,0,49,0,20.1,0,19.3,0,13.7,0,4.3,0,49.5,0
2/3/2003 10:00,2.6,0,45,0,17.7,0,40,0,18.9,0,18.8,0,14.7,0,4.8,0,47.8,0
2/3/2003 10:15,2.8,0,45,0,16.3,0,36,0,17.4,0,18.4,0,13.9,0,4.9,0,46.5,0
2/3/2003 10:30,3,0,45,0,17.8,0,40,0,17.9,0,18.2,0,14.2,0,5,0,45.3,0
2/3/2003 10:45,3.2,0,44,0,17.8,0,42,0,18.3,0,18.1,0,13.9,0,5.1,0,44,0
2/3/2003 11:00,3.5,0,43,0,18.1,0,44,0,18.3,0,18,0,13.8,0,5.2,0,42.8,0
2/3/2003 11:15,3.8,0,42,0,18,0,42,0,18.2,0,17.9,0,14.4,0,5.4,0,42,0
2/3/2003 11:30,4.1,0,41,0,17.5,0,43,0,17.8,0,17.8,0,14.6,0,5.6,0,41.3,0
2/3/2003 11:45,4.1,0,38,0,17.4,0,42,0,17.6,0,17.6,0,14.9,0,5.9,0,40.5,0
2/3/2003 12:00,4.3,0,40,0,17.4,0,42,0,17.4,0,22.1,0,14.9,0,6.1,0,39.8,0
2/3/2003 12:15,4.5,0,38,0,17.5,0,43,0,17.5,0,32.7,0,15.1,0,6.4,0,39.5,0
2/3/2003 12:30,4.9,0,38,0,17.6,0,41,0,17.6,0,23.4,0,15.6,0,6.6,0,39.3,0
2/3/2003 12:45,5.3,0,36,0,19,0,46,0,19.1,0,22.3,0,16.3,0,6.9,0,39,0
2/3/2003 13:00,5.2,0,35,0,19.8,0,44,0,19.6,0,21.6,0,17,0,7.2,0,38.8,0
2/3/2003 13:15,5.3,0,35,0,21,0,43,0,20.4,0,21.2,0,16,0,7.3,0,38.3,0
2/3/2003 13:30,5.5,0,34,0,21.7,0,43,0,20.7,0,0,2,16.1,0,7.5,0,37.8,0
2/3/2003 13:45,5.7,0,34,0,18.6,0,40,0,18.9,0,0,2,17.1,0,7.6,0,37.3,0
2/3/2003 14:00,6,0,33,0,18.2,0,41,0,18.4,0,0,2,17.3,0,7.8,0,36.8,0
2/3/2003 14:15,6.3,0,32,0,18,0,39,0,18.1,0,0,2,17.3,0,7.8,0,37.5,0
2/3/2003 14:30,6.2,0,32,0,17.9,0,39,0,17.8,0,0,2,17.3,0,7.8,0,38.3,0
2/3/2003 14:45,6.5,0,32,0,17.9,0,40,0,17.7,0,0,2,17.5,0,7.9,0,39,0
2/3/2003 15:00,6.7,0,32,0,17.8,0,40,0,17.5,0,0,2,17.5,0,7.9,0,39.8,0
2/3/2003 15:15,6.6,0,31,0,17.6,0,40,0,17.4,0,0,2,17.6,0,7.8,0,40,0
2/3/2003 15:30,6.8,0,31,0,17.5,0,41,0,17.3,0,0,2,17.6,0,7.8,0,40.3,0
2/3/2003 15:45,6.7,0,31,0,17.4,0,40,0,17.1,0,0,2,17.4,0,7.7,0,40.5,0
2/3/2003 16:00,6.7,0,32,0,17.3,0,41,0,17,0,0,2,17.4,0,7.7,0,40.8,0
2/3/2003 16:15,6.8,0,31,0,17.2,0,41,0,16.8,0,0,2,18.1,0,7.5,0,42,0
2/3/2003 16:30,6.8,0,32,0,17.3,0,42,0,16.8,0,0,2,18.2,0,7.2,0,43.3,0
2/3/2003 16:45,6.5,0,33,0,20.5,0,40,0,18.7,0,0,2,18.1,0,7,0,44.5,0
2/3/2003 17:00,6.2,0,37,0,20.2,0,42,0,19.2,0,0,2,17.7,0,6.8,0,45.8,0
2/3/2003 17:15,6.2,0,38,0,19.4,0,43,0,18.2,0,0,2,17.1,0,6.4,0,49,0
2/3/2003 17:30,5.9,0,42,0,18.9,0,45,0,17.8,0,0,2,17.3,0,6.1,0,52.3,0
2/3/2003 17:45,5.7,0,41,0,19.5,0,45,0,18,0,0,2,16.9,0,5.7,0,55.5,0
2/3/2003 18:00,5.6,0,38,0,19.8,0,46,0,18.7,0,0,2,16.4,0,5.4,0,58.8,0
2/3/2003 18:15,5.4,0,38,0,19.6,0,45,0,19.1,0,0,2,15.2,0,5.2,0,59.5,0
2/3/2003 18:30,5.3,0,37,0,19.2,0,44,0,18.9,0,0,2,14.6,0,5.1,0,60.3,0
2/3/2003 18:45,5.2,0,41,0,19.8,0,44,0,19.2,0,0,2,14.4,0,4.9,0,61,0
2/3/2003 19:00,5.1,0,49,0,20.5,0,49,0,18.6,0,0,2,14.6,0,4.8,0,61.8,0
2/3/2003 19:15,5.1,0,53,0,19.9,0,51,0,18.1,0,0,2,14.6,0,4.7,0,62.3,0
2/3/2003 19:30,5.1,0,54,0,21.5,0,49,0,17.9,0,0,2,14.5,0,4.6,0,62.8,0
2/3/2003 19:45,5,0,56,0,23.2,0,45,0,17.8,0,0,2,14.4,0,4.6,0,63.3,0
2/3/2003 20:00,4.8,0,55,0,21.3,0,49,0,17.8,0,0,2,14.2,0,4.5,0,63.8,0
2/3/2003 20:15,4.9,0,57,0,20.7,0,47,0,17.4,0,0,2,14.1,0,4.4,0,64.1,0
2/3/2003 20:30,4.7,0,58,0,19.6,0,49,0,17.3,0,0,2,14,0,4.3,0,64.3,0
2/3/2003 20:45,4.5,0,59,0,19.4,0,52,0,17.4,0,0,2,14.1,0,4.2,0,64.6,0
2/3/2003 21:00,4.5,0,61,0,19.2,0,55,0,17.9,0,0,2,14.1,0,4.1,0,64.8,0
2/3/2003 21:15,4.3,0,60,0,19.4,0,58,0,18.3,0,0,2,14.1,0,4.1,0,64.8,0
2/3/2003 21:30,4.5,0,60,0,19.1,0,56,0,18.5,0,0,2,16.3,0,4.1,0,64.8,0
2/3/2003 21:45,4.3,0,60,0,19.5,0,55,0,18,0,0,2,19.6,0,4.1,0,64.8,0
2/3/2003 22:00,4,0,48,0,20.7,0,52,0,18.9,0,0,2,22.2,0,4.1,0,64.8,0
2/3/2003 22:15,3.8,0,44,0,21.3,0,53,0,21.6,0,0,2,23.5,0,3.7,0,67.6,0
2/3/2003 22:30,3.7,0,44,0,22.2,0,52,0,23.2,0,0,2,24.6,0,3.3,0,70.3,0
2/3/2003 22:45,3.6,0,45,0,22.5,0,53,0,24,0,0,2,25.8,0,2.9,0,73.1,0
2/3/2003 23:00,3.3,0,47,0,22.7,0,52,0,24.4,0,0,2,26.4,0,2.5,0,75.8,0
2/3/2003 23:15,3.4,0,47,0,21.2,0,54,0,22.3,0,0,2,26.6,0,2.4,0,75.8,0
2/3/2003 23:30,3.3,0,48,0,20.1,0,55,0,20.9,0,0,2,26.9,0,2.3,0,75.8,0
2/3/2003 23:45,3.3,0,47,0,19.8,0,55,0,20.1,0,0,2,27.3,0,2.3,0,75.8,0
2/4/2003 0:00,3.3,0,45,0,19.8,0,56,0,19.5,0,0,2,27.4,0,2.2,0,75.8,0
2/4/2003 0:15,3.3,0,46,0,19.4,0,52,0,19,0,0,2,22.8,0,2.1,0,77.6,0
2/4/2003 0:30,3,0,47,0,19,0,47,0,18.6,0,0,2,21.3,0,1.9,0,79.3,0
2/4/2003 0:45,2.7,0,49,0,18.8,0,45,0,18.4,0,0,2,20.4,0,1.8,0,81.1,0
2/4/2003 1:00,2.4,0,50,0,18.6,0,46,0,18.2,0,0,2,19.7,0,1.7,0,82.8,0
2/4/2003 1:15,2.3,0,48,0,18.4,0,45,0,17.9,0,0,2,19.2,0,1.9,0,81.1,0
2/4/2003 1:30,2.2,0,48,0,18.3,0,45,0,17.8,0,0,2,18.7,0,2,0,79.3,0
2/4/2003 1:45,2,0,48,0,18.2,0,45,0,17.6,0,0,2,18.3,0,2.2,0,77.6,0
2/4/2003 2:00,1.9,0,48,0,18.1,0,45,0,17.5,0,0,2,18,0,2.4,0,75.8,0
2/4/2003 2:15,2.1,0,48,0,17.9,0,44,0,17.3,0,0,2,17.7,0,2.5,0,72.6,0
2/4/2003 2:30,1.9,0,50,0,17.8,0,43,0,17.2,0,0,2,17.5,0,2.6,0,69.3,0
2/4/2003 2:45,1.8,0,50,0,17.7,0,42,0,17,0,0,2,17.4,0,2.7,0,66.1,0
2/4/2003 3:00,1.6,0,50,0,17.7,0,43,0,16.9,0,0,2,17.2,0,2.8,0,62.8,0
2/4/2003 3:15,1.6,0,51,0,17.6,0,43,0,16.8,0,0,2,17,0,2.7,0,62.3,0
2/4/2003 3:30,1.4,0,51,0,17.6,0,42,0,16.7,0,0,2,16.9,0,2.6,0,61.8,0
2/4/2003 3:45,1.5,0,51,0,17.5,0,42,0,16.5,0,0,2,16.7,0,2.5,0,61.3,0
2/4/2003 4:00,1.3,0,52,0,17.5,0,42,0,16.4,0,0,2,16.5,0,2.4,0,60.8,0
2/4/2003 4:15,1.2,0,52,0,17.4,0,42,0,16.3,0,0,2,16.4,0,2.4,0,59.8,0
2/4/2003 4:30,1.1,0,53,0,17.4,0,42,0,16.2,0,0,2,16.3,0,2.4,0,58.8,0
2/4/2003 4:45,1,0,54,0,17.3,0,41,0,16.1,0,0,2,16.2,0,2.4,0,57.8,0
2/4/2003 5:00,1,0,55,0,17.2,0,41,0,16,0,0,2,16.1,0,2.4,0,56.8,0
2/4/2003 5:15,0.9,0,54,0,17.1,0,40,0,15.9,0,0,2,16,0,2.3,0,56.5,0
2/4/2003 5:30,0.9,0,54,0,17.1,0,41,0,15.8,0,0,2,15.9,0,2.2,0,56.3,0
2/4/2003 5:45,0.8,0,53,0,17,0,41,0,15.7,0,0,2,15.8,0,2.2,0,56,0
2/4/2003 6:00,0.8,0,54,0,17,0,41,0,15.6,0,0,2,15.8,0,2.1,0,55.8,0
2/4/2003 6:15,0.7,0,53,0,20.4,0,40,0,15.6,0,0,2,15.7,0,2,0,56.3,0
2/4/2003 6:30,0.7,0,53,0,19.6,0,44,0,16.6,0,0,2,15.7,0,1.9,0,56.8,0
2/4/2003 6:45,0.7,0,53,0,19.8,0,45,0,17.4,0,0,2,15.8,0,1.8,0,57.3,0
2/4/2003 7:00,0.9,0,52,0,19.5,0,46,0,17.6,0,0,2,16.2,0,1.7,0,57.8,0
2/4/2003 7:15,1.2,0,52,0,19.6,0,47,0,17.5,0,0,2,16.8,0,1.8,0,57.5,0
2/4/2003 7:30,1.1,0,53,0,19.1,0,46,0,17.9,0,0,2,16.7,0,1.9,0,57.3,0
2/4/2003 7:45,1,0,56,0,20.3,0,48,0,18.7,0,0,2,15.6,0,2.1,0,57,0
2/4/2003 8:00,1,0,58,0,20.5,0,50,0,18.9,0,0,2,14.7,0,2.2,0,56.8,0
2/4/2003 8:15,1.1,0,57,0,20.5,0,46,0,19.1,0,0,2,14.4,0,2.5,0,55.8,0
2/4/2003 8:30,1.3,0,56,0,19.8,0,49,0,19.1,0,0,2,14.4,0,2.8,0,54.8,0
2/4/2003 8:45,1.4,0,55,0,19.8,0,49,0,19.3,0,0,2,14.5,0,3.1,0,53.8,0
2/4/2003 9:00,1.6,0,54,0,19.9,0,49,0,19.2,0,0,2,14.4,0,3.4,0,52.8,0
2/4/2003 9:15,1.8,0,53,0,20,0,49,0,19.4,0,0,2,14.3,0,3.7,0,51.3,0
2/4/2003 9:30,2.3,0,52,0,20,0,49,0,19.5,0,0,2,14.2,0,3.9,0,49.8,0
2/4/2003 9:45,2.6,0,52,0,21,0,48,0,19.8,0,0,2,14.1,0,4.2,0,48.3,0
2/4/2003 10:00,2.8,0,50,0,21.2,0,47,0,20.3,0,0,2,14.1,0,4.5,0,46.8,0
2/4/2003 10:15,3,0,49,0,19.9,0,44,0,19.2,0,0,2,14.3,0,4.6,0,46.8,0
2/4/2003 10:30,3.2,0,48,0,21.2,0,46,0,20.2,0,0,2,14.6,0,4.7,0,46.8,0
2/4/2003 10:45,3.6,0,46,0,18.4,0,41,0,18.6,0,0,2,14.7,0,4.8,0,46.8,0
2/4/2003 11:00,3.9,0,43,0,18.6,0,47,0,18.4,0,0,2,14.5,0,4.9,0,46.8,0
2/4/2003 11:15,4.1,0,42,0,18.1,0,46,0,17.8,0,0,2,14.9,0,4.9,0,49.5,0
2/4/2003 11:30,4.2,0,42,0,17.6,0,43,0,17.3,0,0,2,14.5,0,4.9,0,52.3,0
2/4/2003 11:45,4.2,0,43,0,17.5,0,45,0,17,0,0,2,14.9,0,4.9,0,55,0
2/4/2003 12:00,4.5,0,42,0,17.5,0,44,0,17.2,0,0,2,15.1,0,4.9,0,57.8,0